Date String (YYYY-MM-DD hh:mm:ss) UTC,Instrument flags,absolute air pressure of the measurement (hPa),sample flow rate (lpm),inlet stack bypass flow (lpm),air temperature of the measurement (°C),ambient temperature measured by the external sensor (°C),aerosol sample conditioner tube jacket temperature (°C),OPC LED temperature (°C),internal box temperature (°C),relative humidity of the measurement (%),span deviation,mass concentration of particles derived from Lorenz-Mie calculation of OPC scattering (μg/m³),mass concentration of particles derived from Lorenz-Mie calculation of OPC scattering (μg/m³),mass concentration of particles derived from Lorenz-Mie calculation of OPC scattering (μg/m³)
DateTimeUTC,F1_M11,P_M11,Q1_M11,Q2_M11,T1_M11,T2_M11,T3_M11,T4_M11,T5_M11,U1_M11,ZSPAN_M11,X2_M11,X0_M11,X1_M11
2024-04-24 17:00:00,SystemResetWarning,0829.0,5.00,000.00,025.8,025.2,000.0,034.2,027.7,027.0,0001.8,0007.78,0018.85,0006.32
2024-04-24 17:01:00,SystemResetWarning,0829.0,4.99,000.00,025.8,025.2,000.0,034.2,027.7,026.5,0001.5,0007.75,0019.59,0006.36
2024-04-24 17:02:00,SystemResetWarning,0829.0,4.99,000.00,025.8,025.2,000.0,034.2,027.7,026.7,0000.6,0007.74,0018.86,0006.37
2024-04-24 17:03:00,SystemResetWarning,0829.0,5.00,000.00,025.9,025.3,000.0,034.2,027.7,027.3,0000.1,0007.74,0017.31,0006.39
2024-04-24 17:04:00,SystemResetWarning,0828.9,5.00,000.00,025.9,025.3,000.0,034.2,027.7,027.1,-000.0,0007.70,0016.54,0006.39
2024-04-24 17:05:00,SystemResetWarning,0828.8,5.00,000.00,025.9,025.3,000.0,034.3,027.8,026.6,-000.8,0007.72,0016.26,0006.41
2024-04-24 17:06:00,SystemResetWarning,0828.8,5.00,000.00,025.9,025.3,000.0,034.3,027.8,027.0,-000.8,0007.75,0016.58,0006.42
2024-04-24 17:07:00,SystemResetWarning,0828.8,5.00,000.00,025.9,025.3,000.0,034.3,027.8,026.8,-001.2,0007.78,0016.60,0006.42
2024-04-24 17:08:00,SystemResetWarning,0828.8,5.00,000.00,026.0,025.4,000.0,034.3,027.8,026.8,-001.4,0007.74,0016.24,0006.41
2024-04-24 17:09:00,SystemResetWarning,0828.8,5.00,000.00,026.0,025.4,000.0,034.3,027.8,026.3,-001.6,0007.67,0015.92,0006.40
2024-04-24 17:10:00,SystemResetWarning,0828.7,5.00,000.00,026.0,025.4,000.0,034.3,027.9,026.3,-001.7,0007.59,0016.02,0006.39
2024-04-24 17:11:00,SystemResetWarning,0828.7,5.00,000.00,026.0,025.4,000.0,034.3,027.9,026.4,-001.7,0007.55,0016.32,0006.39
2024-04-24 17:12:00,SystemResetWarning,0828.7,5.00,000.00,026.0,025.5,000.0,034.4,027.9,027.0,-001.6,0007.55,0015.75,0006.41
2024-04-24 17:13:00,SystemResetWarning,0828.7,5.00,000.00,026.1,025.5,000.0,034.4,027.9,026.6,-001.1,0007.56,0015.07,0006.44
2024-04-24 17:14:00,SystemResetWarning,0828.7,5.00,000.00,026.1,025.5,000.0,034.4,027.9,026.7,-001.3,0007.64,0015.07,0006.47
2024-04-24 17:15:00,SystemResetWarning,0828.7,5.00,000.00,026.1,025.5,000.0,034.4,027.9,026.3,-001.7,0007.70,0015.21,0006.51
2024-04-24 17:16:00,SystemResetWarning,0828.7,5.00,000.00,026.1,025.5,000.0,034.4,027.9,026.4,-001.2,0007.80,0015.49,0006.57
2024-04-24 17:17:00,SystemResetWarning,0828.7,5.00,000.00,026.1,025.5,000.0,034.4,028.0,027.0,-000.8,0007.86,0014.78,0006.62
2024-04-24 17:18:00,SystemResetWarning,0828.7,4.99,000.00,026.1,025.5,000.0,034.4,028.0,027.2,-000.3,0007.90,0014.73,0006.66
2024-04-24 17:19:00,SystemResetWarning,0828.7,4.99,000.00,026.1,025.5,000.0,034.5,028.0,026.9,0000.2,0007.96,0015.00,0006.68
2024-04-24 17:20:00,SystemResetWarning,0828.7,5.00,000.00,026.2,025.6,000.0,034.5,028.0,026.6,0000.4,0008.02,0015.28,0006.71
2024-04-24 17:21:00,SystemResetWarning,0828.7,5.00,000.00,026.2,025.6,000.0,034.5,028.0,026.5,0000.2,0008.09,0015.97,0006.75
2024-04-24 17:22:00,SystemResetWarning,0828.6,5.01,000.00,026.2,025.6,000.0,034.5,028.0,027.2,0000.0,0008.19,0016.66,0006.81
2024-04-24 17:23:00,SystemResetWarning,0828.6,5.01,000.00,026.2,025.6,000.0,034.5,028.1,027.5,0000.5,0008.24,0016.45,0006.85
2024-04-24 17:24:00,SystemResetWarning,0828.6,5.00,000.00,026.2,025.6,000.0,034.5,028.1,027.2,0000.7,0008.28,0016.46,0006.87
2024-04-24 17:25:00,SystemResetWarning,0828.6,5.00,000.00,026.2,025.6,000.0,034.6,028.1,027.1,0001.2,0008.27,0016.66,0006.89
2024-04-24 17:26:00,SystemResetWarning,0828.6,5.00,000.00,026.3,025.6,000.0,034.6,028.1,027.0,0001.4,0008.35,0017.46,0006.92
2024-04-24 17:27:00,SystemResetWarning,0828.6,5.00,000.00,026.3,025.7,000.0,034.6,028.1,027.4,0001.5,0008.33,0018.15,0006.93
2024-04-24 17:28:00,SystemResetWarning,0828.6,5.00,000.00,026.3,025.7,000.0,034.6,028.1,027.2,0001.6,0008.32,0018.21,0006.93
2024-04-24 17:29:00,SystemResetWarning,0828.6,5.00,000.00,026.3,025.7,000.0,034.6,028.1,026.5,0001.8,0008.41,0019.14,0006.97
2024-04-24 17:30:00,SystemResetWarning,0828.6,5.01,000.00,026.3,025.7,000.0,034.6,028.1,026.4,0001.7,0008.48,0020.30,0007.02
2024-04-24 17:31:00,SystemResetWarning,0828.6,5.01,000.00,026.3,025.7,000.0,034.6,028.1,026.4,0001.8,0008.52,0020.10,0007.06
2024-04-24 17:32:00,SystemResetWarning,0828.6,5.01,000.00,026.3,025.7,000.0,034.7,028.2,026.5,0002.3,0008.53,0019.53,0007.11
2024-04-24 17:33:00,SystemResetWarning,0828.6,4.99,000.00,026.3,025.7,000.0,034.7,028.2,026.5,0002.3,0008.48,0018.39,0007.11
2024-04-24 17:34:00,SystemResetWarning,0828.6,4.99,000.00,026.4,025.8,000.0,034.7,028.2,026.3,0001.9,0008.50,0019.06,0007.13
2024-04-24 17:35:00,SystemResetWarning,0828.6,5.00,000.00,026.4,025.8,000.0,034.7,028.2,026.2,0001.7,0008.53,0019.31,0007.15
2024-04-24 17:36:00,SystemResetWarning,0828.6,5.00,000.00,026.4,025.8,000.0,034.7,028.2,026.3,0001.7,0008.55,0019.09,0007.18
2024-04-24 17:37:00,SystemResetWarning,0828.5,5.00,000.00,026.4,025.8,000.0,034.7,028.2,026.4,0001.6,0008.55,0018.84,0007.19
2024-04-24 17:38:00,SystemResetWarning,0828.6,5.00,000.00,026.4,025.8,000.0,034.7,028.3,026.1,0001.4,0008.56,0018.06,0007.19
2024-04-24 17:39:00,SystemResetWarning,0828.5,5.00,000.00,026.4,025.8,000.0,034.8,028.3,026.2,0000.9,0008.61,0018.07,0007.22
2024-04-24 17:40:00,SystemResetWarning,0828.6,5.01,000.00,026.4,025.8,000.0,034.8,028.3,026.6,0000.5,0008.58,0017.34,0007.24
2024-04-24 17:41:00,SystemResetWarning,0828.5,5.00,000.00,026.5,025.8,000.0,034.8,028.3,026.9,0000.7,0008.52,0016.20,0007.23
2024-04-24 17:42:00,SystemResetWarning,0828.6,5.00,000.00,026.5,025.8,000.0,034.8,028.3,027.0,0000.5,0008.50,0016.83,0007.22
2024-04-24 17:43:00,SystemResetWarning,0828.6,4.98,000.00,026.4,024.7,000.0,034.9,027.7,026.7,0000.3,0008.48,0016.84,0007.19
2024-04-24 17:44:00,SystemResetWarning,0828.5,5.02,000.00,025.9,022.6,000.0,034.9,026.4,027.7,-000.0,0008.53,0016.88,0007.20
2024-04-24 17:45:00,SystemResetWarning,0828.4,5.02,000.00,025.5,021.8,000.0,034.8,025.9,027.9,-000.0,0008.59,0017.21,0007.21
2024-04-24 17:46:00,SystemResetWarning,0828.4,5.00,000.00,025.3,022.2,000.0,034.6,026.0,028.6,-000.4,0008.57,0017.42,0007.21
2024-04-24 17:47:00,SystemResetWarning,0828.4,5.00,000.00,025.2,022.6,000.0,034.4,026.3,028.6,-000.6,0008.54,0017.55,0007.21
2024-04-24 17:48:00,SystemResetWarning,0828.4,5.00,000.00,025.2,023.0,000.0,034.3,026.6,029.0,-001.1,0008.49,0018.04,0007.19
2024-04-24 17:49:00,SystemResetWarning,0828.4,5.00,000.00,025.3,023.3,000.0,034.2,026.8,029.5,-001.1,0008.46,0018.75,0007.19
2024-04-24 17:50:00,SystemResetWarning,0828.4,4.99,000.00,025.3,023.6,000.0,034.1,026.9,029.4,-000.2,0008.39,0018.60,0007.15
2024-04-24 17:51:00,SystemResetWarning,0828.3,5.00,000.00,025.3,023.9,000.0,034.1,027.0,028.0,-000.0,0008.32,0018.77,0007.09
2024-04-24 17:52:00,SystemResetWarning,0828.3,5.01,000.00,025.4,024.1,000.0,034.1,027.1,027.8,-000.3,0008.32,0018.93,0007.07
2024-04-24 17:53:00,SystemResetWarning,0828.3,5.00,000.00,025.4,024.3,000.0,034.0,027.2,027.6,-000.5,0008.34,0018.96,0007.08
2024-04-24 17:54:00,SystemResetWarning,0828.3,5.00,000.00,025.4,024.4,000.0,034.0,027.2,027.6,-000.8,0008.37,0018.51,0007.09
2024-04-24 17:55:00,SystemResetWarning,0828.3,5.00,000.00,025.5,024.5,000.0,034.0,027.3,027.2,-000.6,0008.33,0019.36,0007.07
2024-04-24 17:56:00,SystemResetWarning,0828.3,5.01,000.00,025.5,024.6,000.0,034.0,027.4,027.8,-000.1,0008.28,0019.94,0007.04
2024-04-24 17:57:00,SystemResetWarning,0828.3,5.00,000.00,025.6,024.7,000.0,034.0,027.4,027.6,0000.5,0008.24,0020.31,0007.01
2024-04-24 17:58:00,SystemResetWarning,0828.4,5.00,000.00,025.6,024.8,000.0,034.0,027.4,027.6,0000.4,0008.30,0020.31,0006.98
2024-04-24 17:59:00,SystemResetWarning,0828.3,5.00,000.00,025.6,024.9,000.0,034.0,027.5,027.4,0000.4,0008.35,0019.91,0006.97
